Weather in Lavrovo

Russia / Oryol Oblast     52°50′20″N   36°00′36″E
temp.,
°C
wind,
m/s
gust,
m/s
humid.,
%
clouds,
%
prec.,
mm/h
press.,
hPa
HPBL,
m
21 january, fri
fri2100:00−4s71495100 0.4 1005612
03:00−4s71296100 1.6 1003509
06:00−4s61296100 1.3 1001473
09:00−4s51095100 2.3 1000373
12:00−3sw5892100 0.1 1000657
15:00−5ssw6119294 0.1 1000566
18:00−5s61492100 0.1 999573
21:00−5ssw71495100 0.3 999714
22 january, sat
sat2200:00−4ssw71495100 0.5 999589
03:00−3ssw61295100 1.0 1000575
06:00−4ssw51195100 0.3 1001442
09:00−5ssw5109492 0.5 1004334
12:00−5ssw489489 0.1 1006385
15:00−4ssw4690100 0.1 1008551
18:00−5s2596100 0.1 1010214
21:00−6sse359793 0.2 1012107
23 january, sun
sun2300:00−11sse239976 0.1 101539
03:00−14se229988 0.1 101718
06:00−16se22100100 0.0 102014
09:00−17ese22100100 0.1 102314
12:00−10ese239657 0.1 1025101
15:00−9ne24955 0.1 102781
18:00−16ne229968 0.0 103017
21:00−16ne349975 0.0 103250
24 january, mon
mon2400:00−16nne379972 0.0 103489
03:00−16nne399860 0.0 1034114
06:00−15nne5119777 0.0 1034183
09:00−14nne4129660 0.0 1035213
12:00−10ne51392100 0.0 1034301
15:00−8nne5994100 0.0 1033305
18:00−10nne499565 0.1 1034195
21:00−13nne499649 0.1 1034129
25 january, tue
tue2500:00−16ne349852 0.0 103450
03:00−16ne349755 0.0 103359
06:00−19nne2210059 0.0 103229
09:00−20ne2210052 0.0 103215
12:00−12e12927 0.0 103084
15:00−11ene11945 0.0 102719
18:00−17se119943 0.0 10279
21:00−19sse2210062 0.0 10269